Starlink 3629

operational
NORAD ID: 51774 Int'l Des: 2022-017 Owner: SPXS Country: US Constellation: starlink
LEOCIRCULAR

About Starlink 3629

Description loading...

Live Position

Loading 3D Globe...

Upcoming Passes

Altitude History

Altitude vs Time

uPlot chart will show altitude changes over time

Two-Line Element Set

1 51774U 22017G 25352.98091818 .00001416 00000-0 10697-3 0 9995
2 51774 53.2163 341.4362 0001296 74.9200 285.1935 15.08852908210382
Epoch: Dec 18, 2025 • Age: 5 hours

Current Status

Altitude 539.4 km
Velocity 7.60 km/s
Sub-Earth Point 15.99°N, 161.19°W
Launch Date Feb 25, 2022
Age 3.8 years
Type internet

Technical Details

Classification Payload
Mass 297.00 kg
Dry Mass 275.00 kg
Total Mass 297.00 kg
Length 0.20 m
Diameter 2.80 m
Span 9.00 m
Shape Box + pan
Manufacturer SPXS
Bus Type Starlink
Phase Status In Orbit
Owner/State SPXS/US

Large Constellations

Loading constellations...